Find Starlink 30389

NORAD ID: 57783 Int'l Des: 2023-134 Owner: SPXS Country: US Constellation: starlink operational
LEOCIRCULAR

現在のビュー

3D地球を読み込み中...

About Starlink 30389

Starlink 30389 (NORAD 57783) is a starlink constellation satellite (v2 mini) launched Sep 4, 2023 by SPXS of US. It operates in LEO, CIRCULAR orbit with a mass of 730.00 kg.

Starlink 30389について

説明を読み込み中...

次回通過

Passes for default location (London). Set your location on the main map for personalized predictions.

高度履歴

Loading altitude history...

軌道要素

1 57783U 23134N 26175.09165494 .00000509 00000-0 28038-4 0 9991
2 57783 43.0050 316.6498 0001959 287.2387 72.8250 15.27579918155742
Epoch: Jun 24, 2026 • Age: 30 hours

現在のステータス

高度 491.9 km
速度 7.62 km/s
衛星直下点 -35.45°S, 129.61°W
打ち上げ日 Sep 4, 2023
運用期間 2.8 years
タイプ internet

技術仕様

分類 Payload
質量 730.00 kg
乾燥質量 700.00 kg
総質量 730.00 kg
長さ 0.30 m
直径 4.10 m
スパン 29.00 m
形状 Box + pan
製造者 SPXS
バスタイプ Starlink V2M
フェーズステータス In Orbit
所有者/国 SPXS/US

Most Searched